FENGYUN 1C DEB, 31544

Orbit data source: Space-Track

FENGYUN 1C DEB, 31544 is space debris in SSO originally from a launch on Mon, 10 May 1999 UTC launched from the Taiyaun Space Center, China (TSC). Fengyun 1C debris stems from the Chinese weather satellite Fengyun-1C, which was intentionally destroyed by a Chinese anti-satellite missile in 2007. This event dramatically increased the amount of space debris, with thousands of trackable fragments posing hazards to satellites and human spaceflight. The Fengyun 1C debris cloud has become a focal point in discussions about space sustainability and the need for international regulations to prevent the creation of new debris.

Loading next visibility...
Identifier
31544, 1999-025BYK
Orbit
SSO
Country
Flag of CNCN / PRC
Related business
Manufacturer
Unknown
Mission
Spacecraft
Bus & Motor
Unknown
Mass
Unknown
Launch date (UTC)
1999-05-10 (27 years ago)
Launch vehicle
Unknown
Launch site
Taiyaun Space Center, China (TSC)
Object type
Payload
Rocket body
Debris
Shape & HBR
Unknown shape, 0.1 m
Radar Cross Section
Medium (>0.1 m² and <1 m²)

Expand to show TLE details & history
Last TLE update: 21 hours ago

TLE from 21 hours ago
0 FENGYUN 1C DEB
1 31544U 99025BYK 26207.43455056  .00001011  00000-0  54344-3 0  9997
2 31544  98.8063 260.8604 0031198 350.2971   9.7596 14.14891024989486
Epoch: 2026-07-26T10:25Z
TLE epoch observation values (Epoch: 2026-07-26T10:25:45.168Z)
Latitude
-0.00003°
Longitude
160.28967°
Altitude
823.383 km
Speed
7.453 km/s
True Right ascension
17h 23m 26s
True Declination
0° 00' 00"
Sunlit
Object was in full shadow at epoch
Visualization orbit readout
Latitude
Unknown
Longitude
Unknown
Altitude
Unknown
Speed
Unknown
Apparent Right ascension
Unknown
Apparent Declination
Unknown
Sunlit
N/A
Visualization observer readout
Local Sidereal Time
20:29:54
Azimuth
Unknown
Elevation
Unknown
Doppler factor
Unknown
Orbital elements
Apogee altitude
862.372 km
Perigee altitude
817.334 km
Semi-major axis
7,217.99 km
Eccentricity
0.00312
Inclination
98.8063°
RAAN
260.8604°
Arg. of periapsis
350.2971°
True anomaly
9.82044°
Mean anomaly
9.7596°
Eccentric anomaly
9.78999°
Mean motion
3.53931 °/min
Orbital period
101.71 mins
BSTAR
0.00054344
Loading maneuver chart data...
Computing Atmospheric mass density...

Documentation

Showing up to 5 results
|